Content
SEND FEEDBACK

Daily
Averages
Monthly
Summary
Germany

LUBECK, GERMANY


Home > Europe > Germany
Elevation: 56 feet     Latitude: 54 00N     Longitude: 011 12E

WEATHER
 
SELECT A DAY
Number of Records: 63,871;   Date Range: 7/3/96 - 10/23/14
 
SHARE

PRINT THIS DATA

[ ← Previous Day ]
WEATHER ALMANAC - MAY 10, 2013
[ Next Day → ]
[ °C ]   °F
Weather ElementAverageHighLow
Temperature59.9 °F66.2 °F (12:20 pm)51.8 °F (6:50 am)
Dewpoint44.5 °F59 °F (8:50 am)39.2 °F (12:50 pm)
Humidity59.3 %100 % (6:50 am)40 % (12:20 pm)
Barometer29.87 in29.95 in (9:20 pm)29.83 in (6:50 am)
Wind Speed11.9 mph19.6 mph (1:20 pm)
Weather ElementAverage
Visibility5 mi
Wind DirectionSSW (207.7 °)

Weather ElementTotal
Precipitation---
Heating Degree Days6 (Base 65)
Growing Degree Days9 (Base 50)
Averaged from 31 records on May 10, 2013
WEATHER CONDITIONS BREAKOUT
WIND DIRECTION BREAKOUT
WEATHER BY HOUR - MAY 10, 2013
[ °C ]   °F
Local TimeTemperatureDewpointHumidityBarometerVisibilityWind DirectionWind SpeedGust SpeedPrecipitationEventsConditions
6:50 AM51.8 °F51.8 °F100 %29.83 in0.5 miVariable2.3 mphFogFog
7:20 AM51.8 °F51.8 °F100 %29.83 in0.6 miVariable2.3 mphFogFog
7:50 AM51.8 °F51.8 °F100 %29.83 in1.9 miVariable3.5 mphScattered Clouds
8:20 AM53.6 °F53.6 °F100 %29.83 inVariable3.5 mphClear
8:50 AM59.0 °F59.0 °F100 %29.83 inSW (220°)5.8 mphClear
9:20 AM60.8 °F46.4 °F59 %29.83 inSW (230°)11.5 mphClear
9:50 AM62.6 °F42.8 °F48 %29.83 inSW (230°)13.8 mphClear
10:20 AM62.6 °F42.8 °F48 %29.83 inSW (230°)15.0 mphClear
10:50 AM62.6 °F42.8 °F48 %29.83 inWSW (240°)16.1 mphClear
11:20 AM62.6 °F41.0 °F45 %29.83 inWSW (240°)16.1 mphClear
11:50 AM64.4 °F41.0 °F42 %29.83 inSW (230°)16.1 mphClear
12:20 PM66.2 °F41.0 °F40 %29.83 inSW (220°)16.1 mphClear
12:50 PM64.4 °F39.2 °F40 %29.83 inSW (220°)16.1 mphClear
1:20 PM66.2 °F41.0 °F40 %29.83 inSW (230°)19.6 mphClear
1:50 PM62.6 °F41.0 °F45 %29.86 inWSW (240°)18.4 mphClear
2:20 PM62.6 °F41.0 °F45 %29.86 inSW (230°)18.4 mphClear
2:50 PM60.8 °F42.8 °F52 %29.86 inWSW (240°)15.0 mphClear
3:20 PM64.4 °F48.2 °F56 %29.86 in6.2 miWSW (250°)16.1 mphScattered Clouds
3:50 PM60.8 °F44.6 °F55 %29.89 in6.2 miWest (260°)12.7 mphScattered Clouds
4:20 PM59.0 °F42.8 °F55 %29.89 in6.2 miWSW (240°)15.0 mphMostly Cloudy
4:50 PM60.8 °F42.8 °F52 %29.89 inWSW (250°)13.8 mphClear
5:20 PM60.8 °F42.8 °F52 %29.89 inWSW (240°)16.1 mphClear
5:50 PM60.8 °F42.8 °F52 %29.89 in6.2 miSW (230°)13.8 mphScattered Clouds
6:20 PM60.8 °F42.8 °F52 %29.89 in6.2 miWSW (240°)8.1 mphScattered Clouds
6:50 PM59.0 °F42.8 °F55 %29.89 in6.2 miWSW (240°)10.4 mphMostly Cloudy
7:20 PM59.0 °F42.8 °F55 %29.92 inWSW (250°)10.4 mphClear
7:50 PM59.0 °F41.0 °F51 %29.92 inWSW (250°)13.8 mphClear
8:20 PM57.2 °F42.8 °F59 %29.92 in6.2 miWSW (240°)6.9 mphMostly Cloudy
8:50 PM57.2 °F44.6 °F63 %29.92 in6.2 miSW (230°)6.9 mphMostly Cloudy
9:20 PM57.2 °F44.6 °F63 %29.95 in6.2 miWSW (240°)9.2 mphMostly Cloudy
9:50 PM55.4 °F44.6 °F67 %29.95 in6.2 miWest (280°)6.9 mphMostly Cloudy
Hourly data recorded from EDHL, located miles away from Lubeck, Germany







STORIES FROM OUR PARTNERS